User: anonymous   Login
Location: NJAA Observatory
(40.6819°N, 74.8979°W)
Time: 17:36:24
(UTC-04:00)
Language:

Cosmos 220 Rocket - Orbit

View from above orbital plane
View from above orbital plane
View from above satellite
View from above satellite

Ground track
Ground track

The orbit data is extracted from the following two-line orbital elements,

1  3230U 68040B   17083.84579982 +.00000328 +00000-0 +37694-4 0  9993
2  3230 074.0360 051.9767 0029800 023.7634 336.4916 14.90095502601711
Epoch (UTC): 24 March 2017 20:17:57
Eccentricity: 0.0029800
inclination: 74.0360°
perigee height: 577 km
apogee height: 618 km
right ascension of ascending node: 51.9767°
argument of perigee: 23.7634°
revolutions per day: 14.90095502
mean anomaly at epoch: 336.4916°
orbit number at epoch: 60171

The dashed part of the orbit path shows where the satellite is in the earth's shadow,  

DLR